Location: Dal�� Lhota
(48.7500°N, 14.0167°E)
Time: 23:12:07
(UTC+00:00)

Ariane Rocket - Pass Details

Date: 24 September 2020
Orbit: 760 x 769 km, 98.7° (Epoch: 25 October)

Event Time Altitude Azimuth Distance (km) Brightness Sun altitude
Exits shadow 19:28:05 14° 199° (SSW) 2,059 5.1 -24.7°
Maximum altitude 19:32:05 37° 263° (W) 1,182 4.3 -25.3°
Drops below altitude 10° 19:36:48 10° 330° (NNW) 2,317 6.3 -26.0°
Sets 19:39:18 0° 339° (NNW) 3,250 7.0 -26.3°
